This is the latest recevied weather packets stored in our database for station/object K1BWE-1. If no packets are shown the sender has not sent any weather packets the latest 10 day(s).
| Time | Temp. | Humidity | Pressure | Rain* | Wind** | Luminosity | Snow |
|---|---|---|---|---|---|---|---|
| 1778069579 | 8.89° C | 77% | 1016.6 hPa | 0 mm | - | 0 W/m² | - |
| 1778069277 | 9.44° C | 75% | 1016.7 hPa | 0 mm | - | 0 W/m² | - |
| 1778068975 | 9.44° C | 74% | 1016.7 hPa | 0 mm | - | 0 W/m² | - |
| 1778068672 | 9.44° C | 74% | 1016.6 hPa | 0 mm | - | 0 W/m² | - |
| 1778068068 | 8.89° C | 76% | 1016.7 hPa | 0 mm | - | 0 W/m² | - |
| 1778066857 | 9.44° C | 78% | 1016.5 hPa | 0 mm | - | 0 W/m² | - |
| 1778062014 | 10.56° C | 73% | 1015.9 hPa | 0 mm | - | 0 W/m² | - |
| 1778061712 | 10.56° C | 71% | 1015.9 hPa | 0 mm | - | 0 W/m² | - |
| 1778061410 | 10.56° C | 73% | 1016 hPa | 0 mm | - | 0 W/m² | - |
| 1778060200 | 10.56° C | 72% | 1016 hPa | 0 mm | - | 0 W/m² | - |
| 1778059897 | 10.56° C | 72% | 1016 hPa | 0 mm | - | 0 W/m² | - |
| 1778059594 | 10.56° C | 72% | 1015.9 hPa | 0 mm | - | 0 W/m² | - |
| 1778058989 | 10.56° C | 73% | 1016 hPa | 0 mm | - | 0 W/m² | - |
| 1778058385 | 11.11° C | 72% | 1015.5 hPa | 0 mm | - | 0 W/m² | - |
| 1778057777 | 10.56° C | 71% | 1015.8 hPa | 0 mm | - | 0 W/m² | - |
| 1778057171 | 11.11° C | 73% | 1015.9 hPa | 0 mm | - | 0 W/m² | - |
| 1778056867 | 10.56° C | 78% | 1015.9 hPa | 0 mm | - | 0 W/m² | - |
| 1778056564 | 10.56° C | 79% | 1015.6 hPa | 0 mm | - | 0 W/m² | - |
| 1778056262 | 11.11° C | 79% | 1015.8 hPa | 0 mm | - | 0 W/m² | - |
| 1778055958 | 11.11° C | 78% | 1016 hPa | 0 mm | - | 0 W/m² | - |
| 1778055654 | 11.11° C | 77% | 1016.2 hPa | 0 mm | - | 0 W/m² | - |
| 1778055352 | 11.11° C | 75% | 1016.2 hPa | 0 mm | - | 0 W/m² | - |
| 1778055049 | 11.67° C | 75% | 1016 hPa | 0 mm | - | 0 W/m² | - |
| 1778054747 | 11.67° C | 74% | 1016.2 hPa | 0 mm | - | 0 W/m² | - |
| 1778054444 | 11.67° C | 71% | 1016.3 hPa | 0 mm | - | 0 W/m² | - |
* Rain latest hour (hover to see other rain measurements)
** Current wind speed in m/s (hover to see current wind gust speed)